Tracking 19644 objects as of 26-Apr-2019
HD Live streaming from Space Station
objects crossing your sky now

SL-14 DEB

Track SL-14 DEB now!
10-day predictions


NORAD ID: 35521
Int'l Code: 1987-068CQ
Perigee: 938.7 km
Apogee: 952.1 km
Inclination: 82.6 °
Period: 103.8 minutes
Semi major axis: 7316 km
RCS: 0.0087 m2 (small)
Launch date: August 18, 1987
Source: Commonwealth of Independent States (former USSR) (CIS)
Launch site: PLESETSK MISSILE AND SPACE COMPLEX (PKMTR)

Note: This is SATELLITE DEBRIS
aabbcc
Your satellite tracking list
Your tracking list is empty




NASA's NSSDC Master Catalog

Two Line Element Set (TLE):
1 35521U 87068CQ  19084.70154260 +.00000124 +00000-0 +93149-4 0  9999
2 35521 082.5626 218.0258 0009150 225.3681 198.8693 13.87246874733776
Source of the keplerian elements: AFSPC